Reflectivity
-20 -20 -20 -20 -20 -20 -20 -20 -20 -20 -20 -20 -20 -20 -20 -20 -20 -20 -20 -20 -20 -20 -20 -20 -20 -20 -20 -20 -20 -20 -20 -20 -20 -20 -20 -20 -20 -20 -20 -20 -20 -20 -20
-20 -20 -20 -20 -20 -20 -20 -20 -20 -20 -20 -20 -20 -20 -20 -20 -20 -20 -20 -20 -20 -20 -20 -20 -20 -20 -20 -20 -20 -20 -20 -20 -20 -20 -20 -20 -20 -20 -20 -20 -20 -20 -20
-20 -20 -20 -20 -20 -20 -20 -20 -20 -20 -20 -20 -20 -20 -20 -20 -20 -20 -20 -20 -20 -20 -20 -20 -20 -20 -20 -20 -20 -20 -20 -15 -20 -20 -6 -20 -20 -20 -20 -20 -20 -20 -20
-20 -20 -20 -20 -20 -20 -20 -20 -20 -20 -20 -20 -20 -20 -20 -20 -20 -20 -20 -20 -20 -20 -20 -20 -20 -20 -20 -20 -20 -20 -20 -20 -8 -20 -9 -18 -15 3 -20 -20 -20 -20 -20
-20 -20 -20 -20 -20 -20 -15 -20 -20 -20 -20 -20 -20 -20 -20 -20 -20 -20 -20 -20 -20 -20 -20 -20 -20 -20 -20 -20 -20 -20 -20 -20 -8 -0 -2 -4 -20 -20 -8 -19 -20 -20 -20
-20 -20 -20 -20 -20 -18 -20 -20 -20 -20 -20 -20 -20 -20 -20 -20 -20 -20 -20 -20 -20 -20 -20 -20 -20 -20 -20 -20 -20 -20 -20 -20 -20 -20 -20 -6 7 -12 -1 -16 -20 -20 -20
-20 -20 -20 -20 -15 -13 -20 -20 -20 -20 -20 -20 -20 -20 -20 -20 -20 -20 -20 -20 -20 -20 -20 -20 -20 -20 -20 -20 -20 -20 -20 -20 -20 -20 -20 -20 -20 -20 -16 -15 -19 -19 -20
-20 -20 -20 -20 -20 -20 -20 -20 -20 -20 -20 -20 -20 -20 -20 -20 -20 -20 -20 -20 -20 -20 -20 -20 -20 -20 -20 -20 -20 -20 -20 -20 -20 -20 -20 -20 -17 -20 -6 9 7 -20 -20
-20 -20 -20 -20 -20 -20 -20 -20 -20 -20 -20 -20 -20 -20 -20 -20 -20 -20 -20 -20 -20 -20 -20 -20 -20 -20 -20 -20 -20 -20 -20 -20 -20 -20 -4 -20 -20 -20 -5 -7 5 8 -17
-20 -20 -20 -20 -20 -20 -20 -20 -20 -20 -20 -20 -20 -20 -20 -20 -20 -20 -20 -20 -20 -20 -20 -20 -20 -20 -20 -20 -20 -20 -20 -20 -20 -20 -20 -20 -20 -20 -20 -20 2 -2 8
-20 -20 -20 -20 -20 -20 -20 -20 -20 -20 -20 -20 -20 -20 -20 -20 -20 -20 -20 -20 -20 -20 -20 -20 -20 -20 -20 -20 -20 -20 -20 -20 -20 -20 -20 -20 -20 -20 -20 -13 -16 1 -13
-20 -20 -20 -20 -20 -20 -20 -20 -20 -20 -20 -20 -20 -20 -20 -15 -20 -20 -20 -20 -20 -20 -20 -20 -20 -20 -20 -20 -20 -20 -20 -20 -20 -20 -20 -7 -20 -20 -20 -2 -20 -19 -5
-20 -20 -20 -20 -20 -20 -20 -20 -20 -20 -20 -20 -19 -20 -20 -20 -20 -20 -20 -20 -20 -20 -20 -20 -20 -20 -20 -20 -20 -20 -20 -20 -20 -20 -20 -20 -20 -20 -20 -20 -20 -20 -7
-20 -20 -20 -20 -20 -20 -20 -5 -0 -19 -20 -20 -20 -20 -20 -20 -20 -20 -20 -20 -20 -20 -20 -20 -20 -20 -20 -20 -20 -20 -20 -20 -20 -20 -20 -20 -20 -20 -15 -20 -15 -20 -20
-20 -20 -20 -20 -20 -20 0 15 -17 -20 -20 -20 -20 -20 -20 -20 -20 -20 -20 -20 -20 -20 -20 -20 -20 -20 -20 -20 -20 -20 -20 -20 -20 -20 -20 -15 -17 -20 -20 -20 -11 -9 -10
-20 -20 -20 -20 -20 -20 -3 -20 -20 -18 -20 -20 -20 -20 -20 -20 -20 -20 -20 -20 -20 -20 -20 -20 -20 -20 -20 -20 -20 -20 -20 -20 -20 -20 -20 -20 -20 -20 -20 -20 -20 -20 -9
-20 -20 -20 -20 -19 -13 -20 -20 -13 -20 -20 -20 -20 -20 -20 -20 -20 -20 -20 -20 -20 -20 -20 -20 -20 -20 -20 -20 -20 -20 -20 -20 -20 -20 -20 -20 -20 -20 -20 -20 -20 -20 -17
-20 -20 -20 -20 -12 -20 -20 -20 -20 -20 -20 -20 -20 -20 -20 -20 -20 -20 -20 -20 -20 -20 -20 -20 -20 -20 -20 -20 -20 -20 -20 -20 -20 -20 -20 -20 -20 -20 -20 -20 -20 -20 -20
-20 -20 -20 -19 -11 -20 -20 -20 -20 -20 -20 -20 -20 -20 -20 -20 -20 -20 -20 -20 -20 -20 -20 -20 -20 -20 -20 -20 -20 -20 -20 -20 -20 -20 -20 -20 -20 -20 -20 -20 -20 -20 -20
-20 -20 -20 -2 -9 -20 -20 -20 -20 -20 -20 -20 -20 -20 -20 -20 -20 -20 -20 -20 -20 -20 -20 -20 -20 -20 -20 -20 -20 -20 -20 -20 -20 -20 -20 -20 -20 -20 -20 -20 -20 -20 -20
-20 -20 -20 -20 -20 -20 -20 -20 -20 -20 -20 -20 -20 -20 -20 -20 -20 -20 -20 -20 -20 -20 -20 -20 -20 -20 -20 -20 -20 -20 -20 -20 -20 -20 -20 -20 -20 -20 -20 -17 -20 -20 -20
-20 -20 -20 -20 -20 -20 -20 -20 -20 -20 -20 -20 -20 -20 -20 -20 -20 -20 -20 -20 -20 -20 -20 -20 -20 -20 -20 -20 -20 -20 -20 -20 -20 -20 -20 -20 -20 -20 -20 -20 -20 -20 -20
-20 -20 -20 -20 -20 -20 -20 -20 -20 -20 -20 -20 -20 -20 -20 -20 -20 -20 -20 -20 -20 -20 -20 -20 -20 -20 -20 -20 -20 -20 -20 -20 -20 -20 -20 -20 -20 -20 -20 -20 -20 -20 -20
-20 -20 -20 -20 -20 -20 -20 -20 -20 -20 -20 -20 -20 -20 -20 -20 -20 -20 -20 -20 -20 -20 -20 -20 -20 -20 -20 -20 -20 -20 -20 -20 -20 -20 -20 -20 -20 -20 -20 -20 -20 -20 -20
-20 -20 -20 -20 -20 -20 -20 -20 -20 -20 -20 -20 -20 -20 -20 -20 -20 -20 -20 -20 -20 -20 -20 -20 -20 -20 -20 -20 -20 -20 -20 -20 -20 -20 -20 -20 -20 -20 -20 -20 -20 -20 -20
-20 -20 -20 -20 -20 -20 -20 -20 -20 -20 -20 -20 -20 -20 -20 -20 -20 -20 -20 -20 -20 -20 -20 -20 -20 -20 -20 -20 -20 -20 -20 -20 -20 -20 -20 -20 -20 -20 -20 -20 -20 -20 -20
Wind_Speed
6 7 7 8 9 7 9 7 7 5 4 4 4 3 3 3 4 5 7 7 7 7 8 6 7 6 8 9 9 7 9 9 12 7 4 4 5 4 9 3 4 12 11
9 9 7 6 7 7 8 7 7 6 5 3 2 3 3 3 3 3 6 7 8 9 9 7 8 9 6 8 9 10 7 7 10 7 3 7 6 6 7 5 7 14 10
16 12 9 8 9 8 7 7 6 6 5 6 3 3 4 3 3 3 4 7 8 9 9 10 9 8 7 7 8 8 10 7 7 10 5 5 5 11 3 4 9 9 11
14 11 11 8 9 7 7 7 6 7 6 7 6 6 4 4 2 3 3 5 9 9 9 9 8 8 6 7 7 7 7 6 7 4 7 4 4 5 9 2 7 13 13
18 15 11 10 8 8 7 6 6 6 6 7 7 6 6 4 3 3 5 6 7 8 9 8 8 8 6 7 7 7 9 5 6 6 6 5 5 3 5 10 12 9 10
11 11 9 10 7 7 6 6 8 7 6 6 7 8 7 5 4 4 4 4 4 5 8 7 7 7 7 7 6 7 7 8 6 5 5 5 5 7 5 8 14 15 10
12 12 11 9 11 9 7 7 8 7 6 7 6 6 9 8 6 5 4 4 3 3 6 7 7 6 8 7 7 7 7 8 7 8 6 5 6 6 6 6 8 10 9
11 13 13 7 8 10 7 8 8 8 7 6 6 8 6 5 4 5 4 3 3 4 6 7 6 8 8 8 8 6 6 7 7 9 7 7 6 6 7 6 9 9 6
14 13 7 9 8 8 8 9 8 7 6 6 6 6 7 7 6 6 5 4 5 5 6 6 6 7 8 9 8 6 9 8 8 8 9 7 7 6 6 6 7 8 9
10 9 9 9 5 7 7 7 7 8 6 6 6 7 7 7 6 6 5 5 5 5 5 6 6 7 7 8 8 7 8 8 7 6 10 7 7 7 7 7 6 7 8
10 9 7 6 7 7 6 7 7 7 6 6 6 7 7 7 6 6 5 5 5 6 6 5 6 7 7 7 6 6 8 8 7 8 8 11 10 8 8 7 7 7 8
7 8 9 8 7 6 5 6 6 7 6 5 6 7 7 6 6 6 6 5 6 6 5 5 6 6 6 6 8 7 7 8 8 9 8 11 9 9 10 7 10 9 10
11 9 8 8 7 5 5 4 5 5 5 5 5 6 6 6 6 6 6 6 6 5 5 5 6 6 6 5 6 6 7 7 8 8 8 10 11 11 11 10 10 9 8
14 12 9 7 6 6 6 5 5 4 4 5 5 5 5 6 6 6 6 6 5 5 5 5 5 6 5 7 7 7 7 7 8 9 8 9 9 10 12 11 12 10 9
15 14 12 10 9 9 8 6 6 6 5 5 5 5 5 5 6 6 5 6 6 4 4 5 6 6 4 4 5 6 6 6 7 8 8 9 14 20 16 8 10 12 10
15 16 14 13 13 12 10 9 8 7 6 5 5 5 5 5 5 6 6 6 6 4 4 4 6 5 3 11 11 7 3 6 7 7 8 8 12 13 18 18 18 15 12
15 16 15 15 13 13 11 11 9 7 6 5 4 5 5 5 6 7 7 6 6 5 4 3 3 4 3 11 10 10 3 4 5 5 5 6 7 7 10 15 17 16 19
15 15 14 13 12 11 10 8 8 8 7 6 6 6 6 6 6 6 6 6 5 5 4 3 3 4 5 11 9 8 3 4 5 5 5 3 7 10 10 8 10 11 11
12 13 12 12 11 11 10 9 8 8 7 7 7 6 7 7 6 6 6 5 6 4 4 4 4 4 5 10 9 4 2 2 4 4 6 3 7 18 19 8 9 7 9
12 13 13 12 12 11 10 9 8 9 8 7 7 6 6 7 6 6 6 4 4 6 5 6 4 7 4 9 9 6 4 4 5 5 8 15 12 16 18 8 9 10 9
12 13 13 12 11 9 11 9 8 9 7 7 7 7 6 7 6 6 4 5 5 6 5 6 4 4 4 4 7 8 5 4 4 5 5 5 14 13 15 13 9 10 9
12 11 11 10 9 10 11 9 9 7 6 7 6 6 6 5 5 7 4 5 5 6 5 5 3 2 2 4 5 7 8 6 3 2 2 4 13 13 14 10 14 14 7
9 9 11 11 7 8 11 12 8 8 7 7 5 3 3 3 3 5 5 3 4 3 4 3 2 1 2 3 6 5 5 6 2 1 7 12 12 13 8 14 15 7 5
9 7 11 11 9 6 10 10 12 9 9 8 7 4 5 3 3 3 2 4 3 3 3 3 3 2 3 3 4 2 2 4 3 4 4 4 5 5 4 4 6 3 4
7 9 10 10 10 9 7 8 10 11 9 7 7 7 5 5 4 2 4 4 3 5 5 4 4 4 2 4 5 2 2 2 2 3 3 4 3 3 3 3 3 3 5
9 9 8 9 9 9 8 8 9 10 9 7 6 5 5 3 4 3 0 5 5 9 9 8 6 4 6 6 4 2 1 4 6 4 2 2 1 1 2 2 3 3 3
Wind_Direction
130 120 126 118 106 92 90 81 81 50 59 78 87 73 70 41 48 60 57 51 32 39 36 36 28 20 26 10 10 358 3 3 351 330 322 318 342 85 353 1 11 16 11
130 141 139 123 109 117 109 104 94 76 63 59 75 100 93 49 51 50 62 40 40 36 40 29 28 22 20 13 10 8 358 13 10 5 305 349 335 4 333 355 16 2 2
154 161 146 125 123 126 120 116 108 97 82 91 97 85 75 52 35 23 52 44 44 39 38 36 34 21 20 12 3 8 7 6 14 33 22 344 336 331 329 350 12 12 354
157 154 142 132 137 133 130 131 121 108 94 92 82 79 96 100 52 50 55 59 44 38 34 38 33 24 9 13 5 8 14 4 14 20 16 359 339 333 320 346 325 357 335
158 153 144 136 135 145 140 120 104 94 96 96 101 104 97 86 82 45 47 52 46 32 28 27 28 24 10 12 11 3 22 8 16 15 1 355 327 18 316 308 321 334 347
130 123 124 134 140 129 114 94 90 74 74 78 96 109 101 92 80 66 63 53 32 25 19 14 27 11 15 6 11 13 19 19 17 25 10 3 352 354 343 312 316 322 335
129 134 145 165 147 133 124 104 94 83 82 84 77 88 109 104 86 56 38 67 35 12 25 17 24 5 4 3 12 13 17 27 13 19 10 345 16 349 330 303 314 313 320
142 156 181 137 121 138 121 110 103 93 88 82 86 107 85 81 76 73 67 40 54 26 20 23 22 7 358 11 16 18 13 24 15 14 9 10 7 347 329 317 327 323 332
170 179 124 132 129 131 126 127 116 98 92 101 93 88 90 93 90 81 69 55 27 46 30 27 21 6 8 13 5 27 22 17 10 11 17 10 355 333 336 338 332 328 330
178 152 143 140 128 127 122 114 109 114 109 106 102 106 107 98 91 94 79 65 52 42 37 29 22 17 16 15 20 36 28 25 13 11 20 358 355 349 355 344 342 336 333
176 145 140 126 128 119 125 124 119 122 116 112 109 112 109 103 101 99 92 74 63 43 42 28 26 22 19 17 25 39 31 28 22 16 10 12 3 356 356 340 352 340 336
149 145 147 142 138 132 134 136 136 129 133 126 116 114 123 115 107 93 85 80 70 46 42 32 31 25 22 26 39 37 31 27 24 17 12 12 6 2 360 347 351 347 336
156 153 154 155 149 137 137 145 142 139 136 123 116 122 128 114 103 104 98 94 83 55 44 40 31 15 17 38 57 46 33 30 24 16 12 6 10 9 4 4 355 348 335
170 168 161 152 148 149 151 149 148 148 136 125 120 127 129 125 126 121 106 103 103 72 46 37 33 17 23 46 54 48 34 24 22 20 3 360 13 17 7 7 1 353 349
175 175 163 161 167 167 157 166 152 157 151 131 135 146 136 135 134 127 124 114 111 89 71 57 44 22 15 75 54 49 36 27 19 15 12 7 21 24 24 16 8 2 3
180 175 165 170 173 171 171 168 162 167 153 146 161 172 151 152 150 144 139 122 122 106 79 56 53 19 345 59 68 66 30 23 16 7 356 355 12 24 23 23 26 22 16
174 177 175 174 175 173 169 170 174 155 160 157 174 162 155 148 153 149 148 138 134 140 114 61 33 5 349 54 57 62 35 15 358 353 346 355 357 22 20 13 19 24 22
171 175 173 170 169 156 166 163 161 161 166 163 158 145 141 140 141 142 152 135 144 150 149 116 70 41 41 48 46 48 19 11 355 346 341 359 347 17 33 3 9 8 9
170 175 166 163 153 159 164 165 151 150 149 154 148 147 143 141 148 147 148 152 144 146 139 121 87 61 19 38 45 29 12 19 339 336 341 60 1 23 29 16 11 360 3
161 162 150 145 152 165 155 148 146 149 152 151 149 144 142 143 149 150 151 146 149 148 140 123 99 74 33 22 36 38 27 33 21 23 18 19 27 25 26 23 15 11 355
139 142 151 160 154 144 142 139 144 156 155 131 132 136 141 144 148 148 145 139 144 139 135 120 100 73 44 3 37 48 47 43 39 27 14 6 32 22 35 34 30 22 353
145 151 142 141 142 143 139 147 162 158 142 133 132 141 147 152 153 137 133 139 139 143 143 147 133 78 23 20 27 47 59 71 73 354 334 5 37 35 33 33 35 27 3
140 142 140 135 132 145 153 156 170 151 136 129 140 150 120 112 141 135 138 126 140 141 152 141 147 266 320 324 333 352 44 73 68 23 52 45 40 34 17 34 35 15 15
141 141 142 147 151 156 166 166 158 159 154 155 161 159 140 135 95 88 112 126 136 131 144 149 186 247 305 310 308 348 358 50 59 30 33 16 19 6 340 351 6 348 14
143 153 160 162 165 159 156 153 160 160 172 176 174 175 178 158 142 112 163 168 237 169 166 198 169 153 247 250 240 162 160 175 192 99 34 18 3 353 338 338 349 0 17
154 157 163 162 162 163 161 162 164 171 172 178 179 174 166 152 153 158 173 239 204 209 211 192 171 231 215 229 248 283 346 133 145 60 67 313 300 347 334 348 339 337 352